{"data":{"norad_id":69924,"intl_designator":"2026-156BH","name":"CENTAURI-9","alt_names":[],"object_type":"PAYLOAD","status":"ACTIVE","operator":null,"country":"AUS","launch_date":"2026-07-07","launch_site_code":"AFWTR","launch_vehicle":null,"mission":null,"orbit_class":"UNKNOWN","rcs_meters":null,"size_class":null,"mass_kg":null,"dimensions":null,"purposes":[],"wikipedia_slug":null,"has_3d_model":false,"image_url":null,"decayed_at":null,"tle_current":{"epoch":"2026-09-19T23:27:59.033376Z","epoch_age_seconds":62872,"freshness":"FRESH","line1":"1 69924U 26156BH  26262.97776659  .00000470  00000+0  51551-4 0  9995","line2":"2 69924  97.7437 162.2121 0006719 265.5020  94.5432 14.92220622 11130","mean_motion":14.92220622,"eccentricity":0.0006719,"inclination_deg":97.7437,"raan_deg":162.2121,"arg_perigee_deg":265.502,"mean_anomaly_deg":94.5432,"bstar":5.1551e-5,"rev_number":1113,"period_min":96.500475785544,"perigee_km":586.33049538178,"apogee_km":595.69563924223,"semimajor_km":6969.150067312,"source":"CELESTRAK","updated_at":"2026-09-20T09:00:25.204904Z"}}}